Location: Natural Bridges National Monument
(37.6093°N, 109.9767°W)
Time: 18:27:58
(UTC-06:00)

Cosmos 1727 Rocket - Visible Passes

Search period start: 27 August 2016 00:00
Search period end: 06 September 2016 00:00
Orbit: 960 x 997 km, 82.9° (Epoch: 27 August)

Date Brightness Start Highest point End Pass type
(mag) Time Alt. Az. Time Alt. Az. Time Alt. Az.
27 Aug 5.8 20:21:53 10° NNW 20:27:34 37° W 20:33:16 10° SSW visible
28 Aug 6.8 20:49:19 10° NW 20:53:34 19° W 20:57:51 10° SW visible
31 Aug 6.8 20:22:43 10° NW 20:27:20 22° W 20:31:57 10° SW visible
01 Sep 7.1 06:21:56 10° ESE 06:25:30 16° E 06:29:04 10° NE visible
01 Sep 7.5 20:52:07 10° WNW 20:53:11 10° W 20:54:15 10° W visible
04 Sep 7.1 05:56:11 10° ESE 05:59:16 14° E 06:02:19 10° NE visible
04 Sep 7.5 20:24:40 10° WNW 20:26:57 12° W 20:29:14 10° WSW visible
05 Sep 6.4 06:20:04 10° SE 06:25:10 28° E 06:30:19 10° NNE visible
